Weather History for Pine Bluff, AR

Change the Weather History Date:

Sunday, June 2, 2013

  Actual Average Record
Temperature  
Mean Temperature 74 °F 76 °F  
Max Temperature 80 °F 86 °F 102 °F (2001)
Min Temperature 67 °F 66 °F 49 °F (1984)
Degree Days  
Heating Degree Days 0 0  
Month to date heating degree days 0 0  
Since 1 June heating degree days 0 0  
Since 1 July heating degree days 2957 2881  
Cooling Degree Days 9 11  
Month to date cooling degree days 18 22  
Year to date cooling degree days 285 329  
Since 1 June cooling degree days 18 22  
Growing Degree Days 24 (Base 50)    
Moisture  
Dew Point 65 °F    
Average Humidity 76    
Maximum Humidity 97    
Minimum Humidity 54    
Precipitation  
Precipitation 0.00 in 0.14 in 4.69 in (1927)
Month to date precipitation 0.87 0.28  
Year to date precipitation 28.31 23.48  
Snow  
Snow 0.00 in 0.00 in - ()
Month to date snowfall 0.0 0.0  
Since 1 June snowfall 0.0 0.0  
Since 1 July snowfall 2.1 3.1  
Snow Depth 0.00 in    
Sea Level Pressure  
Sea Level Pressure 29.96 in    
Wind  
Wind Speed 6 mph (North)    
Max Wind Speed 14 mph    
Max Gust Speed 18 mph    
Visibility 10 miles    
Events      
T = Trace of Precipitation, MM = Missing Value Source: NWS Daily Summary

Daily Weather History Graph

Daily Weather History Graph

Search for Another Location

Airport:

Trip Planner

Search our weather history database for the weather conditions in past years. The results will help you decide how hot, cold, wet, or windy it might be!

Date:

Astronomy

Jun. 02, 2013 Rise Set
Actual Time 5:56 AM CDT 8:15 PM CDT
Civil Twilight 5:27 AM CDT 8:43 PM CDT
Nautical Twilight 4:52 AM CDT 9:19 PM CDT
Astronomical Twilight 4:14 AM CDT 9:58 PM CDT
Moon 2:09 AM CDT 2:58 PM CDT
Length of Visible Light 15h 16m
Length of Day
14h 18m
Waning Crescent, 30% of the Moon is Illuminated
Jun 2
Waning Crescent
Jun 8
New
Jun 16
First Quarter
Jun 23
Full
Jun 29
Last Quarter

Hourly Weather History & Observations

Time (CDT) Temp. Heat Index Dew Point Humidity Pressure Visibility Wind Dir Wind Speed Gust Speed Precip Events Conditions
12:35 AM 69.8 °F - 68.0 °F 94% 29.95 in 10.0 mi Calm Calm - N/A   Overcast
12:53 AM 69.1 °F - 68.0 °F 96% 29.95 in 10.0 mi Calm Calm - N/A   Overcast
1:06 AM 69.8 °F - 68.0 °F 94% 29.96 in 10.0 mi Calm Calm - N/A   Overcast
1:15 AM 69.8 °F - 68.0 °F 94% 29.95 in 10.0 mi Calm Calm - N/A   Overcast
1:53 AM 69.1 °F - 68.0 °F 96% 29.93 in 10.0 mi Calm Calm - N/A   Overcast
2:29 AM 69.8 °F - 68.0 °F 94% 29.95 in 10.0 mi Calm Calm - N/A   Overcast
2:53 AM 70.0 °F - 68.0 °F 93% 29.94 in 10.0 mi Calm Calm - N/A   Overcast
3:26 AM 69.8 °F - 68.0 °F 94% 29.96 in 10.0 mi North 3.5 mph - N/A   Overcast
3:39 AM 69.8 °F - 68.0 °F 94% 29.96 in 10.0 mi North 3.5 mph - N/A   Overcast
3:46 AM 69.8 °F - 66.2 °F 88% 29.95 in 10.0 mi North 5.8 mph - N/A   Overcast
3:53 AM 69.1 °F - 66.9 °F 93% 29.95 in 10.0 mi North 4.6 mph - N/A   Overcast
4:00 AM 69.8 °F - 68.0 °F 94% 29.95 in 10.0 mi North 3.5 mph - N/A   Overcast
4:53 AM 68.0 °F - 66.9 °F 96% 29.94 in 10.0 mi North 3.5 mph - N/A   Overcast
5:50 AM 68.0 °F - 66.2 °F 94% 29.96 in 10.0 mi North 4.6 mph - N/A   Overcast
5:53 AM 68.0 °F - 66.0 °F 93% 29.95 in 10.0 mi North 4.6 mph - N/A   Overcast
6:22 AM 68.0 °F - 66.2 °F 94% 29.97 in 9.0 mi North 4.6 mph - N/A   Overcast
6:53 AM 68.0 °F - 66.0 °F 93% 29.96 in 10.0 mi NNW 3.5 mph - N/A   Overcast
7:34 AM 68.0 °F - 66.2 °F 94% 29.97 in 10.0 mi North 3.5 mph - N/A   Overcast
7:53 AM 68.0 °F - 66.0 °F 93% 29.96 in 10.0 mi North 5.8 mph - N/A   Overcast
8:53 AM 69.1 °F - 64.0 °F 84% 29.98 in 10.0 mi NNW 8.1 mph - N/A   Overcast
9:53 AM 70.0 °F - 63.0 °F 78% 29.99 in 10.0 mi NNW 8.1 mph - N/A   Overcast
10:53 AM 73.0 °F - 64.0 °F 73% 29.99 in 10.0 mi North 8.1 mph - N/A   Clear
11:53 AM 75.0 °F - 64.0 °F 69% 29.98 in 10.0 mi North 8.1 mph - N/A   Clear
12:53 PM 75.9 °F - 62.1 °F 62% 29.97 in 10.0 mi NNE 5.8 mph - N/A   Mostly Cloudy
1:53 PM 75.9 °F - 63.0 °F 64% 29.97 in 10.0 mi North 6.9 mph - N/A   Scattered Clouds
2:53 PM 78.1 °F - 64.0 °F 62% 29.96 in 10.0 mi North 6.9 mph - N/A   Scattered Clouds
3:53 PM 80.1 °F 81.7 °F 64.0 °F 58% 29.94 in 10.0 mi North 8.1 mph - N/A   Partly Cloudy
4:53 PM 78.1 °F - 62.1 °F 58% 29.93 in 10.0 mi North 8.1 mph - N/A   Partly Cloudy
5:53 PM 79.0 °F - 61.0 °F 54% 29.93 in 10.0 mi NNW 9.2 mph - N/A   Mostly Cloudy
6:53 PM 77.0 °F - 60.1 °F 56% 29.93 in 10.0 mi North 4.6 mph - N/A   Scattered Clouds
7:53 PM 73.9 °F - 63.0 °F 68% 29.94 in 10.0 mi North 3.5 mph - N/A   Mostly Cloudy
8:53 PM 72.0 °F - 63.0 °F 73% 29.94 in 10.0 mi NNW 4.6 mph - N/A   Overcast
9:53 PM 71.1 °F - 64.0 °F 78% 29.96 in 10.0 mi NNE 8.1 mph - N/A   Mostly Cloudy
10:53 PM 70.0 °F - 63.0 °F 78% 29.97 in 10.0 mi NNE 6.9 mph - N/A   Partly Cloudy
11:53 PM 70.0 °F - 62.1 °F 76% 29.97 in 10.0 mi NE 9.2 mph - N/A   Mostly Cloudy